Dalaman, Turkey

2:08 PM +03 on January 22, 2018 (GMT +0300)
Dalaman

Weather History for LTBS - October, 2013

Change the Weather History Date:

Friday, October 11, 2013

  Actual Average Record
Temperature  
Mean Temperature 70 °F -  
Max Temperature 85 °F 72 °F 85 °F (2013)
Min Temperature 56 °F 52 °F 53 °F (2010)
Cooling Degree Days 6    
Growing Degree Days 20 (Base 50)    
Moisture  
Dew Point 55 °F    
Average Humidity 58    
Maximum Humidity 82    
Minimum Humidity 31    
Precipitation  
Precipitation 0.00 in - - ()
Sea Level Pressure  
Sea Level Pressure 30.10 in    
Wind  
Wind Speed 7 mph ()    
Max Wind Speed 16 mph    
Max Gust Speed -    
Visibility 6.2 miles    
Events      
Averages and records for this station are not official NWS values.
T = Trace of Precipitation, MM = Missing Value Source: Averaged Metar Reports

Daily Weather History Graph

Daily Weather History Graph

Search for Another Location

Airport or City:

Trip Planner

Search our weather history database for the weather conditions in past years. The results will help you decide how hot, cold, wet, or windy it might be!

Date:

Astronomy

Oct. 11, 2013 Rise Set
Actual Time 7:08 AM EEST 6:33 PM EEST
Civil Twilight 6:42 AM EEST 6:59 PM EEST
Nautical Twilight 6:12 AM EEST 7:29 PM EEST
Astronomical Twilight 5:42 AM EEST 7:59 PM EEST
Moon 1:29 PM EEST (10/11) No Moon Set
Length of Visible Light 12h 17m
Length of Day
11h 25m
Waxing Crescent, 43% of the Moon is Illuminated
Oct 11
Waxing Crescent
Oct 12
First Quarter
Oct 19
Full
Oct 27
Last Quarter
Nov 3
New

Hourly Weather History & Observations

Time (EEST) Temp. Heat Index Dew Point Humidity Pressure Visibility Wind Dir Wind Speed Gust Speed Precip Events Conditions
12:20 AM 60.8 °F - 53.6 °F 77% 30.09 in - NNE 8.1 mph - N/A   Clear
12:50 AM 60.8 °F - 53.6 °F 77% 30.12 in - North 8.1 mph - N/A   Clear
1:20 AM 60.8 °F - 53.6 °F 77% 30.12 in - ENE 8.1 mph - N/A   Clear
1:50 AM 59.0 °F - 51.8 °F 77% 30.09 in - ENE 6.9 mph - N/A   Clear
2:20 AM 59.0 °F - 51.8 °F 77% 30.09 in - North 3.5 mph - N/A   Clear
2:50 AM 57.2 °F - 51.8 °F 82% 30.09 in - ENE 6.9 mph - N/A   Clear
3:00 AM 58 °F - 52 °F 73% 30.11 in 6 mi ENE 6.9 mph - -  
3:20 AM 57.2 °F - 50.0 °F 77% 30.09 in - NE 4.6 mph - N/A   Clear
3:50 AM 60.8 °F - 51.8 °F 72% 30.09 in - East 6.9 mph - N/A   Clear
4:20 AM 57.2 °F - 51.8 °F 82% 30.09 in - ENE 3.5 mph - N/A   Clear
4:50 AM 59.0 °F - 50.0 °F 72% 30.09 in - East 6.9 mph - N/A   Clear
5:20 AM 59.0 °F - 50.0 °F 72% 30.09 in - East 8.1 mph - N/A   Clear
5:50 AM 59.0 °F - 50.0 °F 72% 30.09 in - ENE 6.9 mph - N/A   Clear
6:20 AM 59.0 °F - 48.2 °F 67% 30.09 in - NE 5.8 mph - N/A   Clear
6:50 AM 60.8 °F - 50.0 °F 68% 30.09 in - East 6.9 mph - N/A   Clear
7:20 AM 57.2 °F - 50.0 °F 77% 30.09 in - ENE 6.9 mph - N/A   Clear
7:50 AM 59.0 °F - 50.0 °F 72% 30.09 in - ENE 3.5 mph - N/A   Clear
8:20 AM 62.6 °F - 51.8 °F 68% 30.12 in - NE 6.9 mph - N/A   Clear
8:50 AM 66.2 °F - 51.8 °F 60% 30.12 in - ENE 4.6 mph - N/A   Clear
9:00 AM 66 °F - 50 °F 47% 30.14 in 6 mi ENE 4.6 mph - -  
9:20 AM 69.8 °F - 51.8 °F 53% 30.12 in - NE 4.6 mph - N/A   Clear
9:50 AM 73.4 °F - 51.8 °F 47% 30.12 in 6.2 mi North 4.6 mph - N/A   Partly Cloudy
10:20 AM 75.2 °F - 51.8 °F 44% 30.12 in 6.2 mi NNE 4.6 mph - N/A   Partly Cloudy
10:50 AM 78.8 °F - 51.8 °F 39% 30.12 in 6.2 mi Variable 3.5 mph - N/A   Partly Cloudy
11:20 AM 80.6 °F - 50.0 °F 34% 30.12 in 6.2 mi Variable 4.6 mph - N/A   Partly Cloudy
11:50 AM 78.8 °F - 53.6 °F 42% 30.12 in 6.2 mi SSW 9.2 mph - N/A   Partly Cloudy
12:20 PM 78.8 °F - 57.2 °F 47% 30.12 in 6.2 mi SW 8.1 mph - N/A   Partly Cloudy
12:50 PM 80.6 °F 80.3 °F 53.6 °F 39% 30.12 in 6.2 mi SSW 9.2 mph - N/A   Partly Cloudy
1:20 PM 78.8 °F - 55.4 °F 44% 30.12 in 6.2 mi WSW 12.7 mph - N/A   Partly Cloudy
1:50 PM 80.6 °F 81.5 °F 60.8 °F 51% 30.09 in 6.2 mi WSW 15.0 mph - N/A   Partly Cloudy
2:20 PM 80.6 °F 81.8 °F 62.6 °F 54% 30.09 in 6.2 mi WSW 16.1 mph - N/A   Partly Cloudy
2:50 PM 82.4 °F 82.5 °F 59.0 °F 45% 30.09 in 6.2 mi WSW 12.7 mph - N/A   Partly Cloudy
3:00 PM 83 °F - 57 °F 31% 30.11 in 6 mi WSW 12.7 mph - -   Scattered Clouds
3:20 PM 82.4 °F 82.9 °F 60.8 °F 48% 30.09 in 6.2 mi WSW 13.8 mph - N/A   Partly Cloudy
3:50 PM 82.4 °F 82.9 °F 60.8 °F 48% 30.09 in 6.2 mi WSW 16.1 mph - N/A   Partly Cloudy
4:20 PM 82.4 °F 82.9 °F 60.8 °F 48% 30.09 in 6.2 mi WSW 15.0 mph - N/A   Partly Cloudy
4:50 PM 84.2 °F 84.4 °F 60.8 °F 45% 30.09 in 6.2 mi SW 10.4 mph - N/A   Partly Cloudy
5:20 PM 82.4 °F 83.4 °F 62.6 °F 51% 30.09 in 6.2 mi WSW 5.8 mph - N/A   Partly Cloudy
5:50 PM 82.4 °F 82.5 °F 59.0 °F 45% 30.09 in - NNE 10.4 mph - N/A   Clear
6:20 PM 80.6 °F 81.1 °F 59.0 °F 48% 30.09 in - North 11.5 mph - N/A   Clear
6:50 PM 77.0 °F - 59.0 °F 54% 30.09 in - NNE 9.2 mph - N/A   Clear
7:20 PM 78.8 °F - 57.2 °F 47% 30.09 in - North 11.5 mph - N/A   Clear
7:50 PM 75.2 °F - 57.2 °F 53% 30.09 in - NNE 10.4 mph - N/A   Clear
8:20 PM 73.4 °F - 57.2 °F 57% 30.12 in - NNE 6.9 mph - N/A   Clear
8:50 PM 71.6 °F - 57.2 °F 60% 30.12 in - NE 4.6 mph - N/A   Clear
9:00 PM 72 °F - 57 °F 49% 30.14 in 6 mi NE 4.6 mph - -  
9:20 PM 71.6 °F - 57.2 °F 60% 30.12 in - Variable 2.3 mph - N/A   Clear
9:50 PM 71.6 °F - 55.4 °F 57% 30.12 in - NNE 6.9 mph - N/A   Clear
10:20 PM 71.6 °F - 55.4 °F 57% 30.12 in - NNE 11.5 mph - N/A   Clear
10:50 PM 71.6 °F - 53.6 °F 53% 30.12 in - NNE 11.5 mph - N/A   Clear
11:20 PM 71.6 °F - 55.4 °F 57% 30.12 in - NNE 10.4 mph - N/A   Clear
11:50 PM 69.8 °F - 53.6 °F 56% 30.12 in - NNE 10.4 mph - N/A   Clear